"Period start","avg(HW err(1)/warn(2) (#))","avg(Visibility (m))","avg(Weather code (#))","avg(Precip intensity (mm/h))","min(HW err(1)/warn(2) (#))","max(HW err(1)/warn(2) (#))","std(HW err(1)/warn(2) (#))","med(HW err(1)/warn(2) (#))","min(Visibility (m))","max(Visibility (m))","std(Visibility (m))","med(Visibility (m))","min(Weather code (#))","max(Weather code (#))","std(Weather code (#))","med(Weather code (#))","min(Precip intensity (mm/h))","max(Precip intensity (mm/h))","std(Precip intensity (mm/h))","med(Precip intensity (mm/h))"
2017-03-30 00:00:00,2,31659,0,0.00,2,2,0,2,20622,46662,6393,30890,0,0,0,0,0.00,0.00,0.00,0.00
2017-03-30 00:10:00,2,41681,0,0.00,2,2,0,2,32304,50000,5043,41281,0,0,0,0,0.00,0.00,0.00,0.00
2017-03-30 00:20:00,2,40953,0,0.00,2,2,0,2,29506,49433,6582,43258,0,0,0,0,0.00,0.00,0.00,0.00
2017-03-30 00:30:00,2,32883,0,0.00,2,2,0,2,16292,50000,11896,29219,0,0,0,0,0.00,0.00,0.00,0.00
2017-03-30 00:40:00,2,43831,0,0.00,2,2,0,2,34682,50000,5177,44909,0,0,0,0,0.00,0.00,0.00,0.00
2017-03-30 00:50:00,2,36249,0,0.00,2,2,0,2,23739,50000,9709,33194,0,0,0,0,0.00,0.00,0.00,0.00
2017-03-30 01:00:00,2,35325,0,0.00,2,2,0,2,23525,50000,6866,34596,0,0,0,0,0.00,0.00,0.00,0.00
2017-03-30 01:10:00,2,36281,0,0.00,2,2,0,2,27751,50000,6804,35734,0,0,0,0,0.00,0.00,0.00,0.00
2017-03-30 01:20:00,2,34542,0,0.00,2,2,0,2,19198,45717,7619,36004,0,0,0,0,0.00,0.00,0.00,0.00
2017-03-30 01:30:00,2,47330,0,0.00,2,2,0,2,40388,50000,3419,49060,0,0,0,0,0.00,0.00,0.00,0.00
2017-03-30 01:40:00,2,48724,0,0.00,2,2,0,2,46700,50000,1133,48670,0,0,0,0,0.00,0.00,0.00,0.00
2017-03-30 01:50:00,2,49459,0,0.00,2,2,0,2,47618,50000,884,50000,0,0,0,0,0.00,0.00,0.00,0.00
2017-03-30 02:00:00,2,49839,0,0.00,2,2,0,2,48394,50000,482,50000,0,0,0,0,0.00,0.00,0.00,0.00
2017-03-30 02:10:00,2,47557,0,0.00,2,2,0,2,39210,50000,3887,50000,0,0,0,0,0.00,0.00,0.00,0.00
2017-03-30 02:20:00,2,49405,0,0.00,2,2,0,2,45335,50000,1410,50000,0,0,0,0,0.00,0.00,0.00,0.00
2017-03-30 02:30:00,2,46472,0,0.00,2,2,0,2,40814,50000,3156,46850,0,0,0,0,0.00,0.00,0.00,0.00
2017-03-30 02:40:00,2,46826,0,0.00,2,2,0,2,37763,50000,3934,48942,0,0,0,0,0.00,0.00,0.00,0.00
2017-03-30 02:50:00,2,45041,0,0.00,2,2,0,2,33564,50000,5855,47788,0,0,0,0,0.00,0.00,0.00,0.00
2017-03-30 03:00:00,2,44568,0,0.00,2,2,0,2,36716,50000,4780,44183,0,0,0,0,0.00,0.00,0.00,0.00
2017-03-30 03:10:00,2,45851,0,0.00,2,2,0,2,39586,50000,3107,46370,0,0,0,0,0.00,0.00,0.00,0.00
2017-03-30 03:20:00,2,39995,0,0.00,2,2,0,2,14928,50000,12675,44975,0,0,0,0,0.00,0.00,0.00,0.00
2017-03-30 03:30:00,2,35889,0,0.00,2,2,0,2,21859,48501,9484,37182,0,0,0,0,0.00,0.00,0.00,0.00
2017-03-30 03:40:00,2,35625,0,0.00,2,2,0,2,21099,50000,8631,36924,0,0,0,0,0.00,0.00,0.00,0.00
2017-03-30 03:50:00,2,47193,0,0.00,2,2,0,2,35579,50000,4376,49740,0,0,0,0,0.00,0.00,0.00,0.00
2017-03-30 04:00:00,2,48426,0,0.00,2,2,0,2,45754,50000,1577,48552,0,0,0,0,0.00,0.00,0.00,0.00
2017-03-30 04:10:00,2,47068,0,0.00,2,2,0,2,40169,50000,3869,49404,0,0,0,0,0.00,0.00,0.00,0.00
2017-03-30 04:20:00,2,43513,0,0.00,2,2,0,2,33266,50000,5252,43604,0,0,0,0,0.00,0.00,0.00,0.00
2017-03-30 04:30:00,2,35755,0,0.00,2,2,0,2,20163,47241,8352,34117,0,0,0,0,0.00,0.00,0.00,0.00
2017-03-30 04:40:00,2,43098,0,0.00,2,2,0,2,38113,49208,2899,43712,0,0,0,0,0.00,0.00,0.00,0.00
2017-03-30 04:50:00,2,42714,0,0.00,2,2,0,2,32433,50000,6081,43857,0,0,0,0,0.00,0.00,0.00,0.00
2017-03-30 05:00:00,2,44888,0,0.00,2,2,0,2,34302,50000,5544,46952,0,0,0,0,0.00,0.00,0.00,0.00
2017-03-30 05:10:00,2,47715,0,0.00,2,2,0,2,38897,50000,3442,50000,0,0,0,0,0.00,0.00,0.00,0.00
2017-03-30 05:20:00,2,47861,0,0.00,2,2,0,2,37134,50000,4248,50000,0,0,0,0,0.00,0.00,0.00,0.00
2017-03-30 05:30:00,2,49056,0,0.00,2,2,0,2,43597,50000,1926,50000,0,0,0,0,0.00,0.00,0.00,0.00
2017-03-30 05:40:00,2,45077,0,0.00,2,2,0,2,30181,50000,7259,49194,0,0,0,0,0.00,0.00,0.00,0.00
2017-03-30 05:50:00,2,44957,0,0.00,2,2,0,2,36064,49271,4112,47082,0,0,0,0,0.00,0.00,0.00,0.00
2017-03-30 06:00:00,2,41972,0,0.00,2,2,0,2,34190,50000,6208,40428,0,0,0,0,0.00,0.00,0.00,0.00
2017-03-30 06:10:00,2,46467,0,0.00,2,2,0,2,38719,50000,3769,46966,0,0,0,0,0.00,0.00,0.00,0.00
2017-03-30 06:20:00,2,48515,0,0.00,2,2,0,2,43088,50000,2328,50000,0,0,0,0,0.00,0.00,0.00,0.00
2017-03-30 06:30:00,2,48079,0,0.00,2,2,0,2,39083,50000,3469,50000,0,0,0,0,0.00,0.00,0.00,0.00
2017-03-30 06:40:00,2,49481,0,0.00,2,2,0,2,46417,50000,1098,50000,0,0,0,0,0.00,0.00,0.00,0.00
2017-03-30 06:50:00,2,49624,0,0.00,2,2,0,2,46758,50000,968,50000,0,0,0,0,0.00,0.00,0.00,0.00
2017-03-30 07:00:00,2,48682,0,0.00,2,2,0,2,42275,50000,2501,50000,0,0,0,0,0.00,0.00,0.00,0.00
2017-03-30 07:10:00,2,49838,0,0.00,2,2,0,2,48378,50000,487,50000,0,0,0,0,0.00,0.00,0.00,0.00
2017-03-30 07:20:00,2,49790,0,0.00,2,2,0,2,47905,50000,628,50000,0,0,0,0,0.00,0.00,0.00,0.00
2017-03-30 07:30:00,2,49933,0,0.00,2,2,0,2,49328,50000,202,50000,0,0,0,0,0.00,0.00,0.00,0.00
2017-03-30 07:40:00,2,50000,0,0.00,2,2,0,2,50000,50000,0,50000,0,0,0,0,0.00,0.00,0.00,0.00
2017-03-30 07:50:00,2,49932,0,0.00,2,2,0,2,49323,50000,203,50000,0,0,0,0,0.00,0.00,0.00,0.00
2017-03-30 08:00:00,2,49426,0,0.00,2,2,0,2,44893,50000,1523,50000,0,0,0,0,0.00,0.00,0.00,0.00
2017-03-30 08:10:00,2,49738,0,0.00,2,2,0,2,47384,50000,785,50000,0,0,0,0,0.00,0.00,0.00,0.00
2017-03-30 08:20:00,2,49774,0,0.00,2,2,0,2,48188,50000,545,50000,0,0,0,0,0.00,0.00,0.00,0.00
2017-03-30 08:30:00,2,50000,0,0.00,2,2,0,2,50000,50000,0,50000,0,0,0,0,0.00,0.00,0.00,0.00
2017-03-30 08:40:00,2,50000,0,0.00,2,2,0,2,50000,50000,0,50000,0,0,0,0,0.00,0.00,0.00,0.00
2017-03-30 08:50:00,2,50000,0,0.00,2,2,0,2,50000,50000,0,50000,0,0,0,0,0.00,0.00,0.00,0.00
2017-03-30 09:00:00,2,45060,0,0.00,2,2,0,2,35423,50000,4972,45660,0,0,0,0,0.00,0.00,0.00,0.00
2017-03-30 09:10:00,2,25413,0,0.00,2,2,0,2,20501,36721,4398,24951,0,0,0,0,0.00,0.00,0.00,0.00
2017-03-30 09:20:00,2,22975,0,0.00,2,2,0,2,15785,33557,5255,21324,0,0,0,0,0.00,0.00,0.00,0.00
2017-03-30 09:30:00,2,16064,0,0.00,2,2,0,2,10889,20003,2431,16226,0,0,0,0,0.00,0.00,0.00,0.00
2017-03-30 09:40:00,2,8560,63,0.07,2,2,0,2,6330,10918,1408,8013,41,77,18,77,0.00,0.25,0.07,0.05
2017-03-30 09:50:00,2,7020,72,0.21,2,2,0,2,6421,7820,459,6964,71,77,2,71,0.05,0.40,0.12,0.17
2017-03-30 10:00:00,2,6959,77,0.25,2,2,0,2,5983,8421,659,6740,77,77,0,77,0.10,0.35,0.09,0.25
2017-03-30 10:10:00,2,6581,71,0.28,2,2,0,2,5742,7526,518,6666,67,77,5,67,0.15,0.45,0.09,0.25
2017-03-30 10:20:00,2,5496,70,0.48,2,2,0,2,3690,6436,920,5784,67,71,2,71,0.20,1.15,0.27,0.38
2017-03-30 10:30:00,2,7656,71,0.30,2,2,0,2,4993,10931,1867,7376,71,71,0,71,0.15,0.65,0.17,0.25
2017-03-30 10:40:00,2,9368,73,0.09,2,2,0,2,7669,10417,905,9657,71,77,3,71,0.05,0.15,0.03,0.10
2017-03-30 10:50:00,2,10520,71,0.07,2,2,0,2,9025,12618,1151,10275,71,71,0,71,0.05,0.10,0.02,0.05
2017-03-30 11:00:00,2,12348,73,0.07,2,2,0,2,10985,13385,671,12376,71,77,3,71,0.05,0.15,0.03,0.05
2017-03-30 11:10:00,2,18533,60,0.03,2,2,0,2,12795,26376,5089,16888,0,77,30,77,0.00,0.10,0.03,0.03
2017-03-30 11:20:00,2,21340,0,0.00,2,2,0,2,16800,27938,3451,20208,0,0,0,0,0.00,0.00,0.00,0.00
2017-03-30 11:30:00,2,47568,0,0.00,2,2,0,2,37983,50000,3710,50000,0,0,0,0,0.00,0.00,0.00,0.00
2017-03-30 11:40:00,2,50000,0,0.00,2,2,0,2,50000,50000,0,50000,0,0,0,0,0.00,0.00,0.00,0.00
2017-03-30 11:50:00,2,50000,0,0.00,2,2,0,2,50000,50000,0,50000,0,0,0,0,0.00,0.00,0.00,0.00
2017-03-30 12:00:00,2,50000,0,0.00,2,2,0,2,50000,50000,0,50000,0,0,0,0,0.00,0.00,0.00,0.00
2017-03-30 12:10:00,2,50000,0,0.00,2,2,0,2,50000,50000,0,50000,0,0,0,0,0.00,0.00,0.00,0.00
2017-03-30 12:20:00,2,50000,0,0.00,2,2,0,2,50000,50000,0,50000,0,0,0,0,0.00,0.00,0.00,0.00
2017-03-30 12:30:00,2,50000,0,0.00,2,2,0,2,50000,50000,0,50000,0,0,0,0,0.00,0.00,0.00,0.00
2017-03-30 12:40:00,2,35658,22,0.07,2,2,0,2,15343,50000,15244,43248,0,71,29,0,0.00,0.30,0.10,0.00
2017-03-30 12:50:00,2,14581,71,0.25,2,2,0,2,7832,22355,4309,14291,71,71,0,71,0.05,0.60,0.20,0.23
2017-03-30 13:00:00,2,7214,71,0.68,2,2,0,2,6350,8202,560,7054,71,71,0,71,0.30,1.35,0.33,0.55
2017-03-30 13:10:00,2,17118,71,0.05,2,2,0,2,8758,30508,6447,16104,71,71,0,71,0.00,0.20,0.07,0.03
2017-03-30 13:20:00,2,19368,45,0.04,2,2,0,2,11926,33683,7448,15963,0,71,26,41,0.00,0.25,0.08,0.00
2017-03-30 13:30:00,2,11319,71,0.19,2,2,0,2,8780,12607,1005,11504,71,71,0,71,0.00,1.20,0.34,0.08
2017-03-30 13:40:00,2,6267,66,0.10,2,2,0,2,3620,8378,1599,6518,41,77,16,77,0.00,0.15,0.05,0.12
2017-03-30 13:50:00,2,4133,52,0.24,2,2,0,2,3006,5226,794,3936,41,61,5,51,0.10,0.40,0.10,0.25
2017-03-30 14:00:00,2,5493,51,0.21,2,2,0,2,5010,6218,406,5461,51,51,0,51,0.00,0.40,0.15,0.17
2017-03-30 14:10:00,2,5456,54,0.28,2,2,0,2,3300,7633,1146,5540,51,61,5,51,0.05,0.45,0.10,0.30
2017-03-30 14:20:00,2,10551,55,0.09,2,2,0,2,8422,12279,1339,10734,51,71,7,51,0.05,0.20,0.05,0.08
2017-03-30 14:30:00,2,11124,72,0.16,2,2,0,2,7209,15253,2477,10468,71,77,2,71,0.00,0.85,0.24,0.05
2017-03-30 14:40:00,2,9838,67,0.10,2,2,0,2,8169,11540,989,9422,51,77,13,77,0.00,0.25,0.07,0.10
2017-03-30 14:50:00,2,4949,63,0.76,2,2,0,2,2792,8247,1886,4618,51,71,10,71,0.20,2.30,0.62,0.55
2017-03-30 15:00:00,2,2996,71,1.48,2,2,0,2,2657,3357,208,3007,71,71,0,71,0.65,2.80,0.56,1.43
2017-03-30 15:10:00,2,2802,71,2.33,2,2,0,2,2316,3216,311,2911,71,71,0,71,0.60,4.15,0.99,2.20
2017-03-30 15:20:00,2,4166,71,1.19,2,2,0,2,3132,5954,920,3786,71,71,0,71,0.50,2.20,0.55,1.23
2017-03-30 15:30:00,2,6235,71,0.49,2,2,0,2,5508,8069,674,6031,71,71,0,71,0.15,0.75,0.17,0.47
2017-03-30 15:40:00,2,8974,74,0.12,2,2,0,2,8350,10018,480,8902,71,77,3,74,0.05,0.30,0.09,0.05
2017-03-30 15:50:00,2,10224,67,0.13,2,2,0,2,9032,12052,793,10114,51,77,13,77,0.05,0.25,0.06,0.10
2017-03-30 16:00:00,2,10364,51,0.23,2,2,0,2,8654,11632,934,10120,51,51,0,51,0.10,0.40,0.11,0.23
2017-03-30 16:10:00,2,10765,67,0.35,2,2,0,2,9254,13711,1648,9956,51,71,8,71,0.10,0.75,0.18,0.30
2017-03-30 16:20:00,2,21839,74,0.06,2,2,0,2,15034,27841,4076,20495,71,77,3,74,0.00,0.15,0.05,0.05
2017-03-30 16:30:00,2,19187,77,0.07,2,2,0,2,14419,25607,3370,17866,77,77,0,77,0.00,0.15,0.06,0.08
2017-03-30 16:40:00,2,15742,58,0.04,2,2,0,2,12602,17567,1425,15828,41,77,16,51,0.00,0.10,0.04,0.05
2017-03-30 16:50:00,2,19725,71,0.02,2,2,0,2,12659,25072,3788,20666,71,71,0,71,0.00,0.10,0.03,0.00
2017-03-30 17:00:00,2,33549,31,0.01,2,2,0,2,24568,44975,6811,34252,0,77,38,0,0.00,0.05,0.02,0.00
2017-03-30 17:10:00,2,39210,8,0.01,2,2,0,2,23046,50000,10921,43960,0,41,16,0,0.00,0.05,0.02,0.00
2017-03-30 17:20:00,2,26040,62,0.04,2,2,0,2,14242,40181,9577,26118,41,71,14,71,0.00,0.25,0.08,0.00
2017-03-30 17:30:00,2,49099,21,0.00,2,2,0,2,43757,50000,1962,50000,0,71,33,0,0.00,0.00,0.00,0.00
2017-03-30 17:40:00,2,50000,0,0.00,2,2,0,2,50000,50000,0,50000,0,0,0,0,0.00,0.00,0.00,0.00
2017-03-30 17:50:00,2,50000,0,0.00,2,2,0,2,50000,50000,0,50000,0,0,0,0,0.00,0.00,0.00,0.00
2017-03-30 18:00:00,2,50000,0,0.00,2,2,0,2,50000,50000,0,50000,0,0,0,0,0.00,0.00,0.00,0.00
2017-03-30 18:10:00,2,49586,0,0.00,2,2,0,2,45863,50000,1241,50000,0,0,0,0,0.00,0.00,0.00,0.00
2017-03-30 18:20:00,2,50000,0,0.00,2,2,0,2,50000,50000,0,50000,0,0,0,0,0.00,0.00,0.00,0.00
2017-03-30 18:30:00,2,50000,0,0.00,2,2,0,2,50000,50000,0,50000,0,0,0,0,0.00,0.00,0.00,0.00
2017-03-30 18:40:00,2,49900,0,0.00,2,2,0,2,49204,50000,240,50000,0,0,0,0,0.00,0.00,0.00,0.00
2017-03-30 18:50:00,2,50000,0,0.00,2,2,0,2,50000,50000,0,50000,0,0,0,0,0.00,0.00,0.00,0.00
2017-03-30 19:00:00,2,50000,0,0.00,2,2,0,2,50000,50000,0,50000,0,0,0,0,0.00,0.00,0.00,0.00
2017-03-30 19:10:00,2,34009,0,0.00,2,2,0,2,21988,50000,9128,32040,0,0,0,0,0.00,0.00,0.00,0.00
2017-03-30 19:20:00,2,20792,0,0.00,2,2,0,2,16841,24143,2359,21312,0,0,0,0,0.00,0.00,0.00,0.00
2017-03-30 19:30:00,2,12342,0,0.00,2,2,0,2,9878,16653,2158,11528,0,0,0,0,0.00,0.00,0.00,0.00
2017-03-30 19:40:00,2,9777,37,0.15,2,2,0,2,8568,11424,798,9713,0,51,19,41,0.00,0.30,0.09,0.17
2017-03-30 19:50:00,2,12877,56,0.26,2,2,0,2,11684,14281,898,12780,51,61,5,56,0.05,0.65,0.17,0.25
2017-03-30 20:00:00,2,15400,52,0.36,2,2,0,2,10158,24708,4469,13923,51,61,3,51,0.15,0.85,0.19,0.35
2017-03-30 20:10:00,2,17919,51,0.47,2,2,0,2,12565,25050,3754,17451,51,52,0,51,0.15,0.90,0.24,0.47
2017-03-30 20:20:00,2,10794,59,0.88,2,2,0,2,9626,12058,765,10914,52,61,4,61,0.50,1.55,0.33,0.73
2017-03-30 20:30:00,2,12110,56,0.87,2,2,0,2,9879,13256,1298,12901,52,61,4,52,0.20,2.25,0.52,0.88
2017-03-30 20:40:00,2,10310,54,0.84,2,2,0,2,9574,10946,472,10302,52,61,4,52,0.60,1.30,0.20,0.78
2017-03-30 20:50:00,2,9394,52,0.78,2,2,0,2,8035,10954,955,9414,52,52,0,52,0.50,1.20,0.23,0.68
2017-03-30 21:00:00,2,10369,51,0.44,2,2,0,2,9109,12263,1070,10368,51,52,0,51,0.20,0.75,0.18,0.42
2017-03-30 21:10:00,2,18798,51,0.11,2,2,0,2,13047,21332,2815,19854,51,51,0,51,0.05,0.30,0.07,0.10
2017-03-30 21:20:00,2,22336,58,0.40,2,2,0,2,17699,26077,3036,23097,51,61,5,61,0.10,1.10,0.34,0.30
2017-03-30 21:30:00,2,13836,66,0.44,2,2,0,2,9311,18295,2531,14006,61,74,5,67,0.10,1.00,0.25,0.40
2017-03-30 21:40:00,2,19640,66,0.20,2,2,0,2,11926,27667,4497,19808,61,71,5,66,0.05,0.65,0.19,0.10
2017-03-30 21:50:00,2,16131,62,0.38,2,2,0,2,10611,23268,3676,16460,61,71,3,61,0.10,1.20,0.32,0.28
2017-03-30 22:00:00,2,8356,71,0.42,2,2,0,2,5567,12693,2609,7692,71,71,0,71,0.05,0.95,0.28,0.33
2017-03-30 22:10:00,2,3655,71,1.25,2,2,0,2,2745,5130,771,3314,71,71,0,71,0.85,1.95,0.31,1.12
2017-03-30 22:20:00,2,3239,71,1.60,2,2,0,2,2723,4489,475,3101,71,71,0,71,0.55,3.10,0.77,1.30
2017-03-30 22:30:00,2,4727,69,1.02,2,2,0,2,2604,5822,960,4993,67,71,2,67,0.35,2.10,0.52,0.85
2017-03-30 22:40:00,2,1805,70,1.74,2,2,0,2,1367,2321,292,1728,67,71,2,71,0.90,2.35,0.48,1.88
2017-03-30 22:50:00,2,1544,71,2.06,2,2,0,2,1182,2077,289,1474,71,71,0,71,1.10,3.00,0.65,2.05
2017-03-30 23:00:00,2,1328,71,3.31,2,2,0,2,825,1947,342,1360,71,71,0,71,1.10,5.80,1.26,3.05
2017-03-30 23:10:00,2,4439,71,0.57,2,2,0,2,2603,7753,1688,3977,71,71,0,71,0.00,1.45,0.44,0.68
2017-03-30 23:20:00,2,6920,71,0.28,2,2,0,2,3143,12348,2958,6727,71,71,0,71,0.05,0.65,0.19,0.22
2017-03-30 23:30:00,2,1379,71,1.84,2,2,0,2,778,2024,374,1384,71,71,0,71,1.00,4.10,0.82,1.78
2017-03-30 23:40:00,2,972,71,3.24,2,2,0,2,778,1062,80,968,71,71,0,71,2.35,4.15,0.57,3.33
2017-03-30 23:50:00,2,748,72,3.83,2,2,0,2,634,1030,112,715,71,72,0,72,2.55,5.15,0.73,3.83
